DELTA 1 DEB, 29185

Orbit data source: Space-Track

DELTA 1 DEB, 29185 is space debris in LEO originally from a launch on Thu, 11 Jan 1968 UTC launched from the Air Force Western Test Range (AFWTR). Debris objects in space refer to the collection of defunct objects orbiting the Earth. Examples of debris include non-operational satellites, rocket bodies, and fragments generated from explosions, collisions, or faulty payload assembly.

Loading next visibility...
Identifier
29185, 1968-002J
Orbit
LEO
Country
Flag of USUS
Related business
Manufacturer
Unknown
Mission
Spacecraft
Bus & Motor
Unknown
Mass
Unknown
Launch date (UTC)
1968-01-11 (58 years ago)
Launch vehicle
Unknown
Launch site
Air Force Western Test Range (AFWTR)
Object type
Payload
Rocket body
Debris
Shape & HBR
Unknown shape, 0.1 m
Radar Cross Section
Small (<0.1 m²)

Expand to show TLE details & history
Last TLE update: 3 weeks ago

TLE from 3 weeks ago
0 DELTA 1 DEB
1 29185U 68002J   26050.57511401  .00000924  00000-0  20811-2 0  9997
2 29185 105.7753 194.3439 0260558 147.1231 214.6370 13.20401312451597
Epoch: 2026-02-19T13:48Z
TLE epoch observation values (Epoch: 2026-02-19T13:48:09.850Z)
Latitude
0.00002°
Longitude
-162.22159°
Altitude
1,349.4 km
Speed
7.105 km/s
True Right ascension
12h 57m 22s
True Declination
0° 00' 00"
Sunlit
Object was in full shadow at epoch
Visualization orbit readout
Latitude
Unknown
Longitude
Unknown
Altitude
Unknown
Speed
Unknown
Apparent Right ascension
Unknown
Apparent Declination
Unknown
Sunlit
N/A
Visualization observer readout
Local Sidereal Time
06:35:40
Azimuth
Unknown
Elevation
Unknown
Doppler factor
Unknown
Orbital elements
Apogee altitude
1,377.881 km
Perigee altitude
983.966 km
Semi-major axis
7,559.061 km
Eccentricity
0.02606
Inclination
105.7753°
RAAN
194.3439°
Arg. of periapsis
147.1231°
True anomaly
212.98452°
Mean anomaly
214.637°
Eccentric anomaly
213.80638°
Mean motion
3.30249 °/min
Orbital period
109.01 mins
BSTAR
0.0020811
Loading maneuver chart data...
Computing Atmospheric mass density...
Loading historical data...
Loading historical data...
Loading historical data...
Loading historical data...
Loading historical data...
Loading historical data...
Loading historical data...

Documentation

Showing up to 5 results
|